"Sample Date","Sample Time","Sample Value","Units","Flow Rate","Sample Interval","Number Channels","Micron Size 0","Counts/Channel 0","Micron Size 1","Counts/Channel 1","Micron Size 2","Counts/Channel 2","Micron Size 3","Counts/Channel 3","Micron Size 4","Counts/Channel 4","Micron Size 5","Counts/Channel 5","Micron Size 6","Counts/Channel 6","Micron Size 7","Counts/Channel 7","Micron Size 8","Counts/Channel 8","Micron Size 9","Counts/Channel 9","Micron Size 10","Counts/Channel 10","Micron Size 11","Counts/Channel 11","Micron Size 12","Counts/Channel 12","Micron Size 13","Counts/Channel 13","Micron Size 14","Counts/Channel 14","Micron Size 15","Counts/Channel 15","Micron Size 16","Counts/Channel 16","Micron Size 17","Counts/Channel 17","Micron Size 18","Counts/Channel 18","Micron Size 19","Counts/Channel 19","Micron Size 20","Counts/Channel 20","Micron Size 21","Counts/Channel 21","Micron Size 22","Counts/Channel 22","Micron Size 23","Counts/Channel 23","Micron Size 24","Counts/Channel 24","Micron Size 25","Counts/Channel 25","Micron Size 26","Counts/Channel 26","Micron Size 27","Counts/Channel 27","Micron Size 28","Counts/Channel 28","Micron Size 29","Counts/Channel 29","Micron Size 30","Counts/Channel 30","Micron Size 31","Counts/Channel 31"
"03/07/08","14:00:02",26238.000,"cc",28392.029,6.00,6,0.100,20626.000,0.200,3416.000,0.300,993.000,0.500,897.000,1.000,306.000,5.000,0
"03/07/08","14:00:08",26185.000,"cc",28278.844,6.00,6,0.100,20555.000,0.200,3392.000,0.300,980.000,0.500,937.000,1.000,321.000,5.000,0
"03/07/08","14:00:14",26237.000,"cc",28402.928,6.00,6,0.100,20658.000,0.200,3477.000,0.300,967.000,0.500,865.000,1.000,270.000,5.000,0
"03/07/08","14:00:20",26510.000,"cc",28358.482,6.00,6,0.100,20910.000,0.200,3551.000,0.300,958.000,0.500,833.000,1.000,258.000,5.000,0
"03/07/08","14:00:26",26154.000,"cc",28334.873,6.00,6,0.100,20815.000,0.200,3402.000,0.300,819.000,0.500,833.000,1.000,285.000,5.000,0
"03/07/08","14:00:32",26505.000,"cc",28325.934,6.00,6,0.100,20806.000,0.200,3470.000,0.300,968.000,0.500,961.000,1.000,300.000,5.000,0
"03/07/08","14:00:38",26435.000,"cc",28267.848,6.00,6,0.100,20630.000,0.200,3507.000,0.300,1016.000,0.500,958.000,1.000,324.000,5.000,0
"03/07/08","14:00:44",26469.000,"cc",28358.670,6.00,6,0.100,20746.000,0.200,3468.000,0.300,1035.000,0.500,906.000,1.000,314.000,5.000,0
"03/07/08","14:00:50",26217.000,"cc",28373.914,6.00,6,0.100,20804.000,0.200,3440.000,0.300,900.000,0.500,814.000,1.000,259.000,5.000,0
"03/07/08","14:00:56",26501.000,"cc",28267.256,6.00,6,0.100,20819.000,0.200,3403.000,0.300,1005.000,0.500,939.000,1.000,335.000,5.000,0
"03/07/08","14:01:02",26560.000,"cc",28219.969,6.00,6,0.100,20834.000,0.200,3443.000,0.300,1046.000,0.500,947.000,1.000,290.000,5.000,0
"03/07/08","14:01:08",26624.000,"cc",28410.992,6.00,6,0.100,20856.000,0.200,3552.000,0.300,1018.000,0.500,901.000,1.000,297.000,5.000,0
"03/07/08","14:01:14",26667.000,"cc",28332.486,6.00,6,0.100,20981.000,0.200,3491.000,0.300,996.000,0.500,892.000,1.000,307.000,5.000,0
"03/07/08","14:01:20",26285.000,"cc",28167.059,6.00,6,0.100,20345.000,0.200,3502.000,0.300,1107.000,0.500,977.000,1.000,354.000,5.000,0
"03/07/08","14:01:26",27066.000,"cc",28443.555,6.00,6,0.100,21018.000,0.200,3546.000,0.300,1080.000,0.500,1056.000,1.000,366.000,5.000,0
"03/07/08","14:01:32",26861.000,"cc",28328.262,6.00,6,0.100,21132.000,0.200,3539.000,0.300,981.000,0.500,923.000,1.000,286.000,5.000,0
"03/07/08","14:01:38",27279.000,"cc",28261.705,6.00,6,0.100,21181.000,0.200,3686.000,0.300,1096.000,0.500,990.000,1.000,326.000,5.000,0
"03/07/08","14:01:44",26628.000,"cc",28342.367,6.00,6,0.100,20849.000,0.200,3508.000,0.300,993.000,0.500,951.000,1.000,327.000,5.000,0
"03/07/08","14:01:50",26898.000,"cc",28334.363,6.00,6,0.100,20990.000,0.200,3454.000,0.300,1068.000,0.500,1036.000,1.000,350.000,5.000,0
"03/07/08","14:01:56",26926.000,"cc",28237.010,6.00,6,0.100,20883.000,0.200,3535.000,0.300,1107.000,0.500,1049.000,1.000,352.000,5.000,0
"03/07/08","14:02:02",26659.000,"cc",28303.188,6.00,6,0.100,20692.000,0.200,3490.000,0.300,1077.000,0.500,1029.000,1.000,371.000,5.000,0
"03/07/08","14:02:08",26662.000,"cc",28364.285,6.00,6,0.100,20899.000,0.200,3429.000,0.300,1022.000,0.500,973.000,1.000,339.000,5.000,0
"03/07/08","14:02:14",26529.000,"cc",28353.350,6.00,6,0.100,20835.000,0.200,3446.000,0.300,1010.000,0.500,920.000,1.000,318.000,5.000,0
"03/07/08","14:02:20",26526.000,"cc",28301.898,6.00,6,0.100,20781.000,0.200,3552.000,0.300,997.000,0.500,889.000,1.000,307.000,5.000,0
"03/07/08","14:02:26",26623.000,"cc",28352.520,6.00,6,0.100,20910.000,0.200,3466.000,0.300,1029.000,0.500,917.000,1.000,301.000,5.000,0
"03/07/08","14:02:32",26678.000,"cc",28188.199,6.00,6,0.100,20811.000,0.200,3502.000,0.300,1042.000,0.500,974.000,1.000,349.000,5.000,0
"03/07/08","14:02:38",26495.000,"cc",28202.871,6.00,6,0.100,20763.000,0.200,3385.000,0.300,1045.000,0.500,957.000,1.000,345.000,5.000,0
"03/07/08","14:02:44",26853.000,"cc",28317.393,6.00,6,0.100,20999.000,0.200,3500.000,0.300,1035.000,0.500,975.000,1.000,344.000,5.000,0
"03/07/08","14:02:50",27116.000,"cc",28303.096,6.00,6,0.100,21272.000,0.200,3501.000,0.300,1036.000,0.500,962.000,1.000,345.000,5.000,0
"03/07/08","14:02:56",26480.000,"cc",28356.863,6.00,6,0.100,20771.000,0.200,3561.000,0.300,922.000,0.500,943.000,1.000,283.000,5.000,0
"03/07/08","14:03:02",26795.000,"cc",28288.961,6.00,6,0.100,20853.000,0.200,3544.000,0.300,1046.000,0.500,1003.000,1.000,349.000,5.000,0
"03/07/08","14:03:08",26606.000,"cc",28202.119,6.00,6,0.100,20919.000,0.200,3436.000,0.300,950.000,0.500,970.000,1.000,331.000,5.000,0
"03/07/08","14:03:14",26797.000,"cc",28174.906,6.00,6,0.100,21001.000,0.200,3443.000,0.300,1048.000,0.500,978.000,1.000,327.000,5.000,0
"03/07/08","14:03:20",26653.000,"cc",28241.315,6.00,6,0.100,20728.000,0.200,3481.000,0.300,1073.000,0.500,1028.000,1.000,343.000,5.000,0
"03/07/08","14:03:26",26577.000,"cc",28347.781,6.00,6,0.100,20855.000,0.200,3388.000,0.300,1031.000,0.500,984.000,1.000,319.000,5.000,0
"03/07/08","14:03:32",26512.000,"cc",28376.924,6.00,6,0.100,20864.000,0.200,3469.000,0.300,969.000,0.500,932.000,1.000,278.000,5.000,0
"03/07/08","14:03:38",26474.000,"cc",28381.270,6.00,6,0.100,20602.000,0.200,3554.000,0.300,1023.000,0.500,967.000,1.000,328.000,5.000,0
"03/07/08","14:03:44",26718.000,"cc",28212.135,6.00,6,0.100,20908.000,0.200,3519.000,0.300,988.000,0.500,988.000,1.000,315.000,5.000,0
"03/07/08","14:03:50",26452.000,"cc",28057.307,6.00,6,0.100,20724.000,0.200,3469.000,0.300,1014.000,0.500,937.000,1.000,308.000,5.000,0
"03/07/08","14:03:56",26938.000,"cc",28277.576,6.00,6,0.100,20954.000,0.200,3606.000,0.300,1083.000,0.500,941.000,1.000,354.000,5.000,0
"03/07/08","14:04:02",26379.000,"cc",28370.586,6.00,6,0.100,20682.000,0.200,3406.000,0.300,1026.000,0.500,941.000,1.000,324.000,5.000,0
"03/07/08","14:04:08",26529.000,"cc",28383.832,6.00,6,0.100,20798.000,0.200,3399.000,0.300,1025.000,0.500,972.000,1.000,335.000,5.000,0
"03/07/08","14:04:14",26793.000,"cc",28098.982,6.00,6,0.100,20752.000,0.200,3469.000,0.300,1139.000,0.500,1070.000,1.000,363.000,5.000,0
"03/07/08","14:04:20",26764.000,"cc",28269.195,6.00,6,0.100,20862.000,0.200,3370.000,0.300,1143.000,0.500,1062.000,1.000,327.000,5.000,0
"03/07/08","14:04:26",27230.000,"cc",28266.336,6.00,6,0.100,21013.000,0.200,3554.000,0.300,1176.000,0.500,1115.000,1.000,372.000,5.000,0
"03/07/08","14:04:32",26737.000,"cc",28308.623,6.00,6,0.100,20759.000,0.200,3456.000,0.300,1045.000,0.500,1127.000,1.000,350.000,5.000,0
"03/07/08","14:04:38",26909.000,"cc",28318.994,6.00,6,0.100,20772.000,0.200,3538.000,0.300,1096.000,0.500,1124.000,1.000,379.000,5.000,0
"03/07/08","14:04:44",26754.000,"cc",28246.113,6.00,6,0.100,20716.000,0.200,3573.000,0.300,1018.000,0.500,1055.000,1.000,392.000,5.000,0
"03/07/08","14:04:50",26491.000,"cc",28294.422,6.00,6,0.100,20679.000,0.200,3500.000,0.300,1024.000,0.500,982.000,1.000,306.000,5.000,0
"03/07/08","14:04:56",26984.000,"cc",28343.199,6.00,6,0.100,20998.000,0.200,3568.000,0.300,1100.000,0.500,979.000,1.000,339.000,5.000,0
"03/07/08","14:05:02",26618.000,"cc",28359.213,6.00,6,0.100,20667.000,0.200,3513.000,0.300,1071.000,0.500,1015.000,1.000,352.000,5.000,0
"03/07/08","14:05:08",26776.000,"cc",28268.402,6.00,6,0.100,20710.000,0.200,3574.000,0.300,1079.000,0.500,1063.000,1.000,350.000,5.000,0
"03/07/08","14:05:14",27033.000,"cc",28386.824,6.00,6,0.100,20713.000,0.200,3567.000,0.300,1210.000,0.500,1098.000,1.000,445.000,5.000,0
"03/07/08","14:05:20",27151.000,"cc",28316.934,6.00,6,0.100,20735.000,0.200,3574.000,0.300,1163.000,0.500,1259.000,1.000,420.000,5.000,0
"03/07/08","14:05:26",27307.000,"cc",28381.463,6.00,6,0.100,21042.000,0.200,3540.000,0.300,1109.000,0.500,1211.000,1.000,405.000,5.000,0
"03/07/08","14:05:32",27371.000,"cc",28367.361,6.00,6,0.100,20991.000,0.200,3590.000,0.300,1202.000,0.500,1154.000,1.000,434.000,5.000,0
"03/07/08","14:05:38",27353.000,"cc",28349.578,6.00,6,0.100,21053.000,0.200,3549.000,0.300,1153.000,0.500,1139.000,1.000,459.000,5.000,0
"03/07/08","14:05:44",27215.000,"cc",28295.662,6.00,6,0.100,20913.000,0.200,3636.000,0.300,1128.000,0.500,1129.000,1.000,409.000,5.000,0
"03/07/08","14:05:50",26734.000,"cc",28406.484,6.00,6,0.100,20570.000,0.200,3560.000,0.300,1079.000,0.500,1099.000,1.000,426.000,5.000,0
"03/07/08","14:05:56",27061.000,"cc",28268.656,6.00,6,0.100,20786.000,0.200,3576.000,0.300,1110.000,0.500,1140.000,1.000,449.000,5.000,0
"03/07/08","14:06:02",27259.000,"cc",28350.742,6.00,6,0.100,21027.000,0.200,3564.000,0.300,1167.000,0.500,1089.000,1.000,412.000,5.000,0
"03/07/08","14:06:08",27078.000,"cc",28286.336,6.00,6,0.100,20895.000,0.200,3616.000,0.300,1051.000,0.500,1096.000,1.000,420.000,5.000,0
"03/07/08","14:06:14",27611.000,"cc",28251.648,6.00,6,0.100,21022.000,0.200,3692.000,0.300,1210.000,0.500,1216.000,1.000,471.000,5.000,0
"03/07/08","14:06:20",27270.000,"cc",28295.555,6.00,6,0.100,21001.000,0.200,3608.000,0.300,1102.000,0.500,1115.000,1.000,444.000,5.000,0
"03/07/08","14:06:26",27722.000,"cc",28314.096,6.00,6,0.100,21344.000,0.200,3637.000,0.300,1147.000,0.500,1151.000,1.000,443.000,5.000,0
"03/07/08","14:06:32",28008.000,"cc",28370.688,6.00,6,0.100,21552.000,0.200,3670.000,0.300,1124.000,0.500,1195.000,1.000,467.000,5.000,0
"03/07/08","14:06:38",27718.000,"cc",28300.414,6.00,6,0.100,21308.000,0.200,3654.000,0.300,1164.000,0.500,1118.000,1.000,474.000,5.000,0
"03/07/08","14:06:44",27746.000,"cc",28295.111,6.00,6,0.100,21288.000,0.200,3667.000,0.300,1164.000,0.500,1174.000,1.000,452.000,5.000,1.000
"03/07/08","14:06:50",27671.000,"cc",28247.232,6.00,6,0.100,21278.000,0.200,3607.000,0.300,1205.000,0.500,1167.000,1.000,414.000,5.000,0
"03/07/08","14:06:56",27873.000,"cc",28299.539,6.00,6,0.100,21477.000,0.200,3754.000,0.300,1074.000,0.500,1109.000,1.000,459.000,5.000,0
"03/07/08","14:07:02",28384.000,"cc",28386.699,6.00,6,0.100,21982.000,0.200,3723.000,0.300,1034.000,0.500,1201.000,1.000,444.000,5.000,0
"03/07/08","14:07:08",28303.000,"cc",28400.912,6.00,6,0.100,21811.000,0.200,3830.000,0.300,1122.000,0.500,1127.000,1.000,413.000,5.000,0
"03/07/08","14:07:14",27818.000,"cc",28406.275,6.00,6,0.100,21394.000,0.200,3718.000,0.300,1113.000,0.500,1124.000,1.000,469.000,5.000,0
"03/07/08","14:07:20",28144.000,"cc",28261.277,6.00,6,0.100,21699.000,0.200,3849.000,0.300,1155.000,0.500,1044.000,1.000,397.000,5.000,0
"03/07/08","14:07:26",28115.000,"cc",28329.086,6.00,6,0.100,21833.000,0.200,3816.000,0.300,1053.000,0.500,1029.000,1.000,384.000,5.000,0
"03/07/08","14:07:32",28274.000,"cc",28295.492,6.00,6,0.100,21835.000,0.200,3812.000,0.300,1111.000,0.500,1099.000,1.000,417.000,5.000,0
"03/07/08","14:07:38",28125.000,"cc",28330.981,6.00,6,0.100,21534.000,0.200,3815.000,0.300,1120.000,0.500,1178.000,1.000,478.000,5.000,0
"03/07/08","14:07:44",28077.000,"cc",28242.422,6.00,6,0.100,21551.000,0.200,3751.000,0.300,1140.000,0.500,1164.000,1.000,471.000,5.000,0
"03/07/08","14:07:50",28382.000,"cc",28262.731,6.00,6,0.100,21932.000,0.200,3734.000,0.300,1138.000,0.500,1134.000,1.000,444.000,5.000,0
"03/07/08","14:07:56",27950.000,"cc",28334.744,6.00,6,0.100,21648.000,0.200,3671.000,0.300,1101.000,0.500,1113.000,1.000,417.000,5.000,0
"03/07/08","14:08:02",28346.000,"cc",28394.324,6.00,6,0.100,21991.000,0.200,3832.000,0.300,1089.000,0.500,1034.000,1.000,400.000,5.000,0
"03/07/08","14:08:08",27955.000,"cc",28254.156,6.00,6,0.100,21576.000,0.200,3805.000,0.300,1124.000,0.500,1090.000,1.000,360.000,5.000,0
"03/07/08","14:08:14",28484.000,"cc",28356.508,6.00,6,0.100,22107.000,0.200,3761.000,0.300,1116.000,0.500,1105.000,1.000,395.000,5.000,0
"03/07/08","14:08:20",28375.000,"cc",28288.943,6.00,6,0.100,21913.000,0.200,3802.000,0.300,1113.000,0.500,1130.000,1.000,417.000,5.000,0
"03/07/08","14:08:26",28503.000,"cc",28317.940,6.00,6,0.100,22101.000,0.200,3734.000,0.300,1134.000,0.500,1174.000,1.000,360.000,5.000,0
"03/07/08","14:08:32",28866.000,"cc",28405.498,6.00,6,0.100,22433.000,0.200,3871.000,0.300,1120.000,0.500,1043.000,1.000,399.000,5.000,0
"03/07/08","14:08:38",28100.000,"cc",28288.904,6.00,6,0.100,21711.000,0.200,3853.000,0.300,1090.000,0.500,1076.000,1.000,370.000,5.000,0
"03/07/08","14:08:44",28556.000,"cc",28243.170,6.00,6,0.100,22085.000,0.200,3842.000,0.300,1118.000,0.500,1126.000,1.000,385.000,5.000,0
"03/07/08","14:08:50",28777.000,"cc",28319.990,6.00,6,0.100,22251.000,0.200,3931.000,0.300,1141.000,0.500,1064.000,1.000,390.000,5.000,0
"03/07/08","14:08:56",28824.000,"cc",28279.557,6.00,6,0.100,22217.000,0.200,3970.000,0.300,1135.000,0.500,1153.000,1.000,349.000,5.000,0
"03/07/08","14:09:02",28840.000,"cc",28321.055,6.00,6,0.100,22326.000,0.200,3815.000,0.300,1164.000,0.500,1107.000,1.000,428.000,5.000,0
"03/07/08","14:09:08",28879.000,"cc",28402.154,6.00,6,0.100,22416.000,0.200,3874.000,0.300,1101.000,0.500,1058.000,1.000,430.000,5.000,0
"03/07/08","14:09:14",29165.000,"cc",28308.873,6.00,6,0.100,22527.000,0.200,3948.000,0.300,1139.000,0.500,1107.000,1.000,444.000,5.000,0
"03/07/08","14:09:20",29354.000,"cc",28273.248,6.00,6,0.100,22747.000,0.200,4019.000,0.300,1077.000,0.500,1113.000,1.000,398.000,5.000,0
"03/07/08","14:09:26",29183.000,"cc",28234.459,6.00,6,0.100,22830.000,0.200,3865.000,0.300,1081.000,0.500,1027.000,1.000,380.000,5.000,0
"03/07/08","14:09:32",29104.000,"cc",28321.211,6.00,6,0.100,22613.000,0.200,4028.000,0.300,1010.000,0.500,1095.000,1.000,358.000,5.000,0
"03/07/08","14:09:38",29170.000,"cc",28381.088,6.00,6,0.100,22824.000,0.200,4043.000,0.300,1041.000,0.500,916.000,1.000,346.000,5.000,0
"03/07/08","14:09:44",28935.000,"cc",28252.045,6.00,6,0.100,22769.000,0.200,3912.000,0.300,949.000,0.500,966.000,1.000,339.000,5.000,0
"03/07/08","14:09:50",28993.000,"cc",28268.035,6.00,6,0.100,22596.000,0.200,3904.000,0.300,1048.000,0.500,1083.000,1.000,362.000,5.000,0
"03/07/08","14:09:56",29130.000,"cc",28336.231,6.00,6,0.100,22811.000,0.200,3971.000,0.300,1079.000,0.500,927.000,1.000,342.000,5.000,0
"03/07/08","14:10:02",29366.000,"cc",28345.463,6.00,6,0.100,22719.000,0.200,3993.000,0.300,1110.000,0.500,1136.000,1.000,408.000,5.000,0
"03/07/08","14:10:08",29115.000,"cc",28282.914,6.00,6,0.100,22642.000,0.200,3950.000,0.300,1103.000,0.500,1058.000,1.000,362.000,5.000,0
"03/07/08","14:10:14",29194.000,"cc",28398.701,6.00,6,0.100,22645.000,0.200,3992.000,0.300,1081.000,0.500,1062.000,1.000,414.000,5.000,0
"03/07/08","14:10:20",28933.000,"cc",28181.238,6.00,6,0.100,22439.000,0.200,4075.000,0.300,1061.000,0.500,988.000,1.000,370.000,5.000,0
"03/07/08","14:10:26",29168.000,"cc",28408.668,6.00,6,0.100,22827.000,0.200,3996.000,0.300,1018.000,0.500,979.000,1.000,348.000,5.000,0
"03/07/08","14:10:32",28716.000,"cc",28401.865,6.00,6,0.100,22464.000,0.200,3943.000,0.300,1019.000,0.500,933.000,1.000,357.000,5.000,0
"03/07/08","14:10:38",28597.000,"cc",28189.281,6.00,6,0.100,22265.000,0.200,3958.000,0.300,1077.000,0.500,997.000,1.000,300.000,5.000,0
"03/07/08","14:10:44",29464.000,"cc",28348.660,6.00,6,0.100,22767.000,0.200,4115.000,0.300,1160.000,0.500,1063.000,1.000,359.000,5.000,0
"03/07/08","14:10:50",29443.000,"cc",28286.191,6.00,6,0.100,22549.000,0.200,4086.000,0.300,1185.000,0.500,1179.000,1.000,444.000,5.000,0
"03/07/08","14:10:56",29412.000,"cc",28359.770,6.00,6,0.100,22599.000,0.200,4065.000,0.300,1186.000,0.500,1115.000,1.000,447.000,5.000,0
"03/07/08","14:11:02",29028.000,"cc",28259.217,6.00,6,0.100,22526.000,0.200,3975.000,0.300,1068.000,0.500,1083.000,1.000,376.000,5.000,0
"03/07/08","14:11:08",29274.000,"cc",28322.461,6.00,6,0.100,22773.000,0.200,4014.000,0.300,1017.000,0.500,1066.000,1.000,404.000,5.000,0
"03/07/08","14:11:14",28979.000,"cc",28291.498,6.00,6,0.100,22340.000,0.200,4063.000,0.300,1138.000,0.500,1089.000,1.000,349.000,5.000,0
"03/07/08","14:11:20",29065.000,"cc",28373.756,6.00,6,0.100,22317.000,0.200,4129.000,0.300,1147.000,0.500,1114.000,1.000,358.000,5.000,0
"03/07/08","14:11:26",29083.000,"cc",28351.752,6.00,6,0.100,22382.000,0.200,4070.000,0.300,1090.000,0.500,1119.000,1.000,422.000,5.000,0
"03/07/08","14:11:32",29068.000,"cc",28279.818,6.00,6,0.100,22325.000,0.200,4020.000,0.300,1170.000,0.500,1132.000,1.000,421.000,5.000,0
"03/07/08","14:11:38",29354.000,"cc",28286.576,6.00,6,0.100,22599.000,0.200,4167.000,0.300,1115.000,0.500,1092.000,1.000,381.000,5.000,0
"03/07/08","14:11:44",28898.000,"cc",28321.293,6.00,6,0.100,22198.000,0.200,4138.000,0.300,1091.000,0.500,1067.000,1.000,404.000,5.000,0
"03/07/08","14:11:50",28901.000,"cc",28239.398,6.00,6,0.100,22380.000,0.200,3971.000,0.300,1121.000,0.500,1059.000,1.000,370.000,5.000,0
"03/07/08","14:11:56",28593.000,"cc",28353.533,6.00,6,0.100,22153.000,0.200,4021.000,0.300,1051.000,0.500,983.000,1.000,385.000,5.000,0
"03/07/08","14:12:02",28786.000,"cc",28373.316,6.00,6,0.100,22182.000,0.200,4001.000,0.300,1135.000,0.500,1123.000,1.000,345.000,5.000,0
"03/07/08","14:12:08",29003.000,"cc",28376.885,6.00,6,0.100,22322.000,0.200,4108.000,0.300,1157.000,0.500,1053.000,1.000,363.000,5.000,0
"03/07/08","14:12:14",28881.000,"cc",28387.408,6.00,6,0.100,22231.000,0.200,4159.000,0.300,1132.000,0.500,999.000,1.000,360.000,5.000,0
"03/07/08","14:12:20",28799.000,"cc",28339.574,6.00,6,0.100,22227.000,0.200,4104.000,0.300,1077.000,0.500,1063.000,1.000,328.000,5.000,0
"03/07/08","14:12:26",28571.000,"cc",28309.334,6.00,6,0.100,22099.000,0.200,4103.000,0.300,1063.000,0.500,963.000,1.000,343.000,5.000,0
"03/07/08","14:12:32",28445.000,"cc",28251.602,6.00,6,0.100,22094.000,0.200,4017.000,0.300,1028.000,0.500,978.000,1.000,328.000,5.000,0
"03/07/08","14:12:38",28865.000,"cc",28277.244,6.00,6,0.100,22235.000,0.200,4220.000,0.300,1084.000,0.500,996.000,1.000,330.000,5.000,0
"03/07/08","14:12:44",28823.000,"cc",28318.867,6.00,6,0.100,22059.000,0.200,4276.000,0.300,1116.000,0.500,991.000,1.000,381.000,5.000,0
"03/07/08","14:12:50",28922.000,"cc",28250.438,6.00,6,0.100,22340.000,0.200,4193.000,0.300,1066.000,0.500,940.000,1.000,383.000,5.000,0
"03/07/08","14:12:56",28646.000,"cc",28362.783,6.00,6,0.100,22132.000,0.200,4164.000,0.300,1071.000,0.500,941.000,1.000,338.000,5.000,0
"03/07/08","14:13:02",28680.000,"cc",28333.227,6.00,6,0.100,22145.000,0.200,4182.000,0.300,1054.000,0.500,1000.000,1.000,299.000,5.000,0
"03/07/08","14:13:08",28878.000,"cc",28352.936,6.00,6,0.100,22140.000,0.200,4253.000,0.300,1069.000,0.500,1025.000,1.000,391.000,5.000,0
"03/07/08","14:13:14",28742.000,"cc",28368.106,6.00,6,0.100,22209.000,0.200,4138.000,0.300,1079.000,0.500,987.000,1.000,329.000,5.000,0
"03/07/08","14:13:20",28161.000,"cc",28289.438,6.00,6,0.100,21880.000,0.200,4061.000,0.300,1017.000,0.500,885.000,1.000,318.000,5.000,0
"03/07/08","14:13:26",28884.000,"cc",28245.957,6.00,6,0.100,22255.000,0.200,4245.000,0.300,1076.000,0.500,978.000,1.000,330.000,5.000,0
"03/07/08","14:13:32",28931.000,"cc",28378.926,6.00,6,0.100,22183.000,0.200,4231.000,0.300,1136.000,0.500,1014.000,1.000,367.000,5.000,0
"03/07/08","14:13:38",28965.000,"cc",28380.170,6.00,6,0.100,22014.000,0.200,4277.000,0.300,1175.000,0.500,1095.000,1.000,404.000,5.000,0
"03/07/08","14:13:44",28682.000,"cc",28248.354,6.00,6,0.100,21897.000,0.200,4201.000,0.300,1169.000,0.500,1078.000,1.000,337.000,5.000,0
"03/07/08","14:13:50",28780.000,"cc",28210.756,6.00,6,0.100,22004.000,0.200,4164.000,0.300,1123.000,0.500,1121.000,1.000,368.000,5.000,0
"03/07/08","14:13:56",29049.000,"cc",28376.092,6.00,6,0.100,22226.000,0.200,4120.000,0.300,1234.000,0.500,1072.000,1.000,397.000,5.000,0
"03/07/08","14:14:02",28847.000,"cc",28294.529,6.00,6,0.100,21868.000,0.200,4244.000,0.300,1227.000,0.500,1147.000,1.000,361.000,5.000,0
"03/07/08","14:14:08",28957.000,"cc",28304.590,6.00,6,0.100,22058.000,0.200,4210.000,0.300,1221.000,0.500,1071.000,1.000,397.000,5.000,0
"03/07/08","14:14:14",28945.000,"cc",28449.512,6.00,6,0.100,22173.000,0.200,4196.000,0.300,1155.000,0.500,1046.000,1.000,375.000,5.000,0
"03/07/08","14:14:20",28763.000,"cc",28225.922,6.00,6,0.100,21886.000,0.200,4209.000,0.300,1156.000,0.500,1127.000,1.000,385.000,5.000,0
"03/07/08","14:14:26",29077.000,"cc",28339.395,6.00,6,0.100,22374.000,0.200,4113.000,0.300,1209.000,0.500,1004.000,1.000,377.000,5.000,0
"03/07/08","14:14:32",29092.000,"cc",28320.377,6.00,6,0.100,22285.000,0.200,4247.000,0.300,1137.000,0.500,1034.000,1.000,389.000,5.000,0
"03/07/08","14:14:38",28773.000,"cc",28256.850,6.00,6,0.100,21993.000,0.200,4256.000,0.300,1123.000,0.500,1055.000,1.000,346.000,5.000,0
"03/07/08","14:14:44",28751.000,"cc",28278.795,6.00,6,0.100,22075.000,0.200,4177.000,0.300,1126.000,0.500,1029.000,1.000,343.000,5.000,1.000
"03/07/08","14:14:50",29061.000,"cc",28306.803,6.00,6,0.100,22256.000,0.200,4238.000,0.300,1149.000,0.500,1084.000,1.000,334.000,5.000,0
"03/07/08","14:14:56",28918.000,"cc",28270.322,6.00,6,0.100,22147.000,0.200,4176.000,0.300,1124.000,0.500,1100.000,1.000,371.000,5.000,0
"03/07/08","14:15:02",29054.000,"cc",28384.086,6.00,6,0.100,22322.000,0.200,4145.000,0.300,1144.000,0.500,1077.000,1.000,366.000,5.000,0
"03/07/08","14:15:08",28727.000,"cc",28305.543,6.00,6,0.100,22055.000,0.200,4192.000,0.300,1101.000,0.500,1030.000,1.000,349.000,5.000,0
"03/07/08","14:15:14",28966.000,"cc",28318.815,6.00,6,0.100,22156.000,0.200,4336.000,0.300,1146.000,0.500,1007.000,1.000,321.000,5.000,0
"03/07/08","14:15:20",29246.000,"cc",28325.131,6.00,6,0.100,22296.000,0.200,4255.000,0.300,1215.000,0.500,1116.000,1.000,364.000,5.000,0
"03/07/08","14:15:26",29228.000,"cc",28279.334,6.00,6,0.100,22186.000,0.200,4346.000,0.300,1155.000,0.500,1168.000,1.000,373.000,5.000,0
"03/07/08","14:15:32",29119.000,"cc",28393.672,6.00,6,0.100,22175.000,0.200,4288.000,0.300,1163.000,0.500,1120.000,1.000,373.000,5.000,0
"03/07/08","14:15:38",28890.000,"cc",28326.863,6.00,6,0.100,22029.000,0.200,4443.000,0.300,1069.000,0.500,997.000,1.000,352.000,5.000,0
"03/07/08","14:15:44",29108.000,"cc",28199.184,6.00,6,0.100,22452.000,0.200,4261.000,0.300,1107.000,0.500,965.000,1.000,323.000,5.000,0
"03/07/08","14:15:50",29063.000,"cc",28427.254,6.00,6,0.100,22315.000,0.200,4268.000,0.300,1147.000,0.500,993.000,1.000,340.000,5.000,0
"03/07/08","14:15:56",28825.000,"cc",28374.430,6.00,6,0.100,22237.000,0.200,4305.000,0.300,1074.000,0.500,898.000,1.000,311.000,5.000,0
"03/07/08","14:16:02",28816.000,"cc",28270.596,6.00,6,0.100,22234.000,0.200,4192.000,0.300,1075.000,0.500,985.000,1.000,330.000,5.000,0
"03/07/08","14:16:08",29275.000,"cc",28324.695,6.00,6,0.100,22406.000,0.200,4379.000,0.300,1116.000,0.500,1031.000,1.000,343.000,5.000,0
"03/07/08","14:16:14",28718.000,"cc",28287.207,6.00,6,0.100,22001.000,0.200,4275.000,0.300,1140.000,0.500,1013.000,1.000,289.000,5.000,0
"03/07/08","14:16:20",29042.000,"cc",28274.512,6.00,6,0.100,22311.000,0.200,4137.000,0.300,1201.000,0.500,1054.000,1.000,339.000,5.000,0
"03/07/08","14:16:26",29489.000,"cc",28322.293,6.00,6,0.100,22191.000,0.200,4433.000,0.300,1249.000,0.500,1179.000,1.000,437.000,5.000,0